Weather History for KNCA - September, 2012

Change the Weather History Date:

Tuesday, September 18, 2012

  Actual Average (KEWN) Record (KEWN)
Temperature  
Mean Temperature 76 °F 74 °F  
Max Temperature 84 °F 83 °F 95 °F (1958)
Min Temperature 71 °F 65 °F 52 °F (1990)
Degree Days  
Heating Degree Days 0 0  
Month to date heating degree days 0  
Since 1 July heating degree days 0  
Cooling Degree Days 12 9  
Month to date cooling degree days 191  
Year to date cooling degree days 1720  
Growing Degree Days 26 (Base 50)    
Moisture  
Dew Point 71 °F    
Average Humidity 83    
Maximum Humidity 94    
Minimum Humidity 65    
Precipitation  
Precipitation 0.30 in 0.21 in 5.18 in (2003)
Month to date precipitation 3.67  
Year to date precipitation 40.47  
Snow  
Snow 0.00 in - - ()
Month to date snowfall  
Since 1 July snowfall  
Snow Depth -    
Sea Level Pressure  
Sea Level Pressure 29.85 in    
Wind  
Wind Speed 12 mph (SSW)    
Max Wind Speed 18 mph    
Max Gust Speed 38 mph    
Visibility 8 miles    
Events Rain , Thunderstorm    
T = Trace of Precipitation, MM = Missing Value Source: NWS Daily Summary

Daily Weather History Graph

Daily Weather History Graph

Search for Another Location

Airport or City:

Trip Planner

Search our weather history database for the weather conditions in past years. The results will help you decide how hot, cold, wet, or windy it might be!

Date:

Astronomy

Sep. 18, 2012 Rise Set
Actual Time 6:55 AM EDT 7:11 PM EDT
Civil Twilight 6:30 AM EDT 7:36 PM EDT
Nautical Twilight 6:00 AM EDT 8:06 PM EDT
Astronomical Twilight 5:30 AM EDT 8:36 PM EDT
Moon 9:42 AM EDT (9/18) 8:44 PM EDT (9/18)
Length of Visible Light 13h 06m
Length of Day
12h 16m
Waxing Crescent, 9% of the Moon is Illuminated
Sep 18
Waxing Crescent
Sep 22
First Quarter
Sep 29
Full
Oct 8
Last Quarter
Oct 15
New

Hourly Weather History & Observations

Time (EDT) Temp. Heat Index Dew Point Humidity Pressure Visibility Wind Dir Wind Speed Gust Speed Precip Events Conditions
5:56 AM 77.0 °F - 69.8 °F 78% 29.91 in 10.0 mi South 10.4 mph - 0.00 in   Mostly Cloudy
6:56 AM 77.0 °F - 69.1 °F 76% 29.91 in 10.0 mi South 13.8 mph - N/A   Mostly Cloudy
7:56 AM 78.1 °F - 70.0 °F 76% 29.90 in 10.0 mi South 10.4 mph - N/A   Mostly Cloudy
8:56 AM 80.1 °F 83.6 °F 71.1 °F 74% 29.90 in 10.0 mi South 15.0 mph 20.7 mph N/A   Mostly Cloudy
9:56 AM 82.9 °F 87.0 °F 70.0 °F 65% 29.90 in 10.0 mi South 15.0 mph 27.6 mph N/A   Mostly Cloudy
10:32 AM 80.6 °F 83.9 °F 69.8 °F 70% 29.88 in 10.0 mi South 17.3 mph 32.2 mph N/A   Mostly Cloudy
10:56 AM 81.0 °F 84.4 °F 70.0 °F 69% 29.89 in 10.0 mi South 16.1 mph 27.6 mph N/A   Mostly Cloudy
11:38 AM 80.6 °F 84.6 °F 71.6 °F 74% 29.86 in 10.0 mi South 11.5 mph 24.2 mph 0.01 in   Mostly Cloudy
11:56 AM 79.0 °F - 73.9 °F 84% 29.88 in 3.0 mi South 17.3 mph 38.0 mph 0.03 in Rain Light Rain
12:56 PM 82.0 °F 86.7 °F 72.0 °F 71% 29.86 in 10.0 mi South 16.1 mph 25.3 mph 0.00 in   Mostly Cloudy
1:26 PM 78.8 °F - 73.4 °F 83% 29.85 in 2.0 mi SSW 13.8 mph 21.9 mph 0.10 in Rain , Thunderstorm Thunderstorms and Rain
2:03 PM 75.2 °F - 73.4 °F 94% 29.84 in 8.0 mi South 9.2 mph - 0.01 in Rain Light Rain
3:58 PM 77.0 °F - 73.4 °F 89% 29.79 in 2.0 mi South 12.7 mph 21.9 mph 0.00 in Rain Rain
4:14 PM 75.2 °F - 71.6 °F 89% 29.82 in 2.0 mi WSW 18.4 mph 27.6 mph 0.04 in Rain Rain
4:28 PM 73.4 °F - 69.8 °F 88% 29.81 in 3.0 mi SW 10.4 mph 21.9 mph 0.06 in Rain Light Rain
4:47 PM 71.6 °F - 69.8 °F 94% 29.82 in 5.0 mi South 8.1 mph - 0.11 in Rain , Thunderstorm Heavy Thunderstorms and Rain
4:56 PM 72.0 °F - 69.1 °F 91% 29.82 in 2.0 mi South 9.2 mph - 0.22 in Rain , Thunderstorm Heavy Thunderstorms and Rain
5:34 PM 71.6 °F - 69.8 °F 94% 29.81 in 10.0 mi South 5.8 mph - 0.05 in   Partly Cloudy
5:56 PM 72.0 °F - 70.0 °F 93% 29.80 in 10.0 mi South 3.5 mph - 0.05 in   Mostly Cloudy
7:56 PM 75.9 °F - 72.0 °F 87% 29.80 in 10.0 mi South 5.8 mph - N/A   Partly Cloudy
8:56 PM 75.9 °F - 72.0 °F 87% 29.83 in 10.0 mi SSW 6.9 mph - N/A   Mostly Cloudy
9:31 PM 73.4 °F - 69.8 °F 88% 29.82 in 10.0 mi WNW 11.5 mph - N/A   Mostly Cloudy
9:56 PM 72.0 °F - 69.1 °F 91% 29.83 in 10.0 mi West 6.9 mph - 0.00 in   Overcast